Location: Brantley
(31.5822°N, 86.2569°W)
Time: 05:31:29
(UTC+00:00)

Courier 1B Rocket - Pass Details

Date: 20 February 2026
Orbit: 920 x 1201 km, 28.2° (Epoch: 5 March)

Event Time Altitude Azimuth Distance (km) Brightness Sun altitude
Rises 05:35:27 0° 270° (W) 3,658 - -68.6°
Reaches altitude 10° 05:38:29 10° 258° (WSW) 2,750 - -68.8°
Maximum altitude 05:43:52 26° 204° (SSW) 1,903 - -69.0°
Drops below altitude 10° 05:49:34 10° 150° (SSE) 2,913 - -69.2°
Sets 05:52:53 0° 139° (SE) 3,918 - -69.3°
